Location: Boiro
(42.6475°N, 8.8834°W)
Time: 04:24:21
(UTC+01:00)

Vanguard 1 Rocket - Pass Details

Date: 30 November 2021
Orbit: 651 x 4225 km, 34.3° (Epoch: 26 January)

Event Time Altitude Azimuth Distance (km) Brightness Sun altitude
Exits shadow 07:02:08 16° 255° (WSW) 4,679 10.5 -18.4°
Maximum altitude 07:16:31 67° 179° (S) 3,716 10.5 -15.9°
Drops below altitude 10° 07:42:04 10° 104° (ESE) 7,422 13.6 -11.4°
Sets 07:47:50 0° 103° (ESE) 8,368 14.4 -10.4°
